Location: Coupvray
(48.8929°N, 2.7967°E)
Time: 10:23:21
(UTC+00:00)

Altair 2 - Pass Details

Date: 24 January 2021
Orbit: 837 x 949 km, 90.2° (Epoch: 26 February)

Event Time Altitude Azimuth Distance (km) Brightness Sun altitude
Rises 06:05:25 0° 1° (N) 3,458 10.8 -13.6°
Reaches altitude 10° 06:07:48 10° 1° (N) 2,531 10.0 -13.2°
Maximum altitude 06:13:30 84° 273° (W) 901 7.8 -12.3°
Drops below altitude 10° 06:19:21 10° 187° (S) 2,589 10.4 -11.4°
Sets 06:21:48 0° 186° (S) 3,543 11.1 -11.0°
